Weather History for Wise, VA

Change the Weather History Date:

Monday, January 20, 2014

  Actual Average Record
Temperature  
Mean Temperature 42 °F -  
Max Temperature 51 °F 37 °F 57 °F (1999)
Min Temperature 32 °F 21 °F 3 °F (2008)
Degree Days  
Heating Degree Days 24    
Moisture  
Dew Point 28 °F    
Average Humidity 64    
Maximum Humidity 80    
Minimum Humidity 43    
Precipitation  
Precipitation 0.00 in - - ()
Sea Level Pressure  
Sea Level Pressure 29.85 in    
Wind  
Wind Speed 12 mph (SW)    
Max Wind Speed 22 mph    
Max Gust Speed 28 mph    
Visibility 10 miles    
Events      
Averages and records for this station are not official NWS values.
T = Trace of Precipitation, MM = Missing Value Source: NWS Daily Summary

Daily Weather History Graph

Daily Weather History Graph

Search for Another Location

Airport:

Trip Planner

Search our weather history database for the weather conditions in past years. The results will help you decide how hot, cold, wet, or windy it might be!

Date:

Astronomy

Jan. 20, 2014 Rise Set
Actual Time 7:40 AM EST 5:42 PM EST
Civil Twilight 7:12 AM EST 6:10 PM EST
Nautical Twilight 6:40 AM EST 6:42 PM EST
Astronomical Twilight 6:09 AM EST 7:13 PM EST
Moon 10:08 PM EST (1/20) 9:46 AM EST (1/20)
Length of Visible Light 10h 57m
Length of Day
10h 01m
Waning Gibbous, 83% of the Moon is Illuminated
Jan 20
Waning Gibbous
Jan 24
Last Quarter
Jan 30
New
Feb 6
First Quarter
Feb 14
Full

Hourly Weather History & Observations

Time (EST) Temp. Windchill Dew Point Humidity Pressure Visibility Wind Dir Wind Speed Gust Speed Precip Events Conditions
12:15 AM 33.8 °F 22.2 °F 26.6 °F 75% 29.86 in 10.0 mi SW 20.7 mph 25.3 mph N/A   Clear
12:35 AM 35.6 °F 25.2 °F 26.6 °F 70% 29.86 in 10.0 mi SW 18.4 mph 25.3 mph N/A   Clear
12:55 AM 35.6 °F 24.5 °F 26.6 °F 70% 29.85 in 10.0 mi WSW 20.7 mph 25.3 mph N/A   Clear
1:15 AM 35.6 °F 24.8 °F 26.6 °F 70% 29.84 in 10.0 mi SW 19.6 mph 27.6 mph N/A   Clear
1:35 AM 35.6 °F 24.2 °F 26.6 °F 70% 29.84 in 10.0 mi SW 21.9 mph 25.3 mph N/A   Clear
1:55 AM 35.6 °F 26.2 °F 26.6 °F 70% 29.84 in 10.0 mi SW 15.0 mph 20.7 mph N/A   Clear
2:15 AM 33.8 °F 23.5 °F 26.6 °F 75% 29.86 in 10.0 mi WSW 16.1 mph 21.9 mph N/A   Clear
2:35 AM 33.8 °F 25.8 °F 26.6 °F 75% 29.86 in 10.0 mi WSW 10.4 mph - N/A   Clear
2:55 AM 33.8 °F 25.8 °F 26.6 °F 75% 29.86 in 10.0 mi SW 10.4 mph - N/A   Clear
3:15 AM 33.8 °F 24.3 °F 24.8 °F 70% 29.86 in 10.0 mi SW 13.8 mph 17.3 mph N/A   Clear
3:35 AM 33.8 °F 25.3 °F 24.8 °F 70% 29.85 in 10.0 mi SW 11.5 mph - N/A   Clear
3:55 AM 32.0 °F 23.0 °F 26.6 °F 80% 29.86 in 10.0 mi SW 11.5 mph 17.3 mph N/A   Clear
4:15 AM 32.0 °F 22.5 °F 26.6 °F 80% 29.85 in 10.0 mi SW 12.7 mph - N/A   Clear
4:35 AM 32.0 °F 23.0 °F 26.6 °F 80% 29.85 in 10.0 mi SW 11.5 mph - N/A   Clear
4:55 AM 32.0 °F 22.5 °F 26.6 °F 80% 29.85 in 10.0 mi SW 12.7 mph - N/A   Clear
5:15 AM 32.0 °F 22.5 °F 26.6 °F 80% 29.85 in 10.0 mi SW 12.7 mph - N/A   Clear
5:35 AM 32.0 °F 22.5 °F 26.6 °F 80% 29.84 in 10.0 mi SW 12.7 mph - N/A   Clear
5:55 AM 32.0 °F 23.6 °F 26.6 °F 80% 29.85 in 10.0 mi SW 10.4 mph - N/A   Clear
6:15 AM 32.0 °F 22.5 °F 26.6 °F 80% 29.85 in 10.0 mi SW 12.7 mph - N/A   Clear
6:35 AM 32.0 °F 22.5 °F 26.6 °F 80% 29.85 in 10.0 mi SW 12.7 mph - N/A   Clear
6:55 AM 32.0 °F 23.0 °F 26.6 °F 80% 29.85 in 10.0 mi SW 11.5 mph - N/A   Clear
7:15 AM 32.0 °F 23.0 °F 26.6 °F 80% 29.85 in 10.0 mi SW 11.5 mph - N/A   Clear
7:35 AM 32.0 °F 24.2 °F 26.6 °F 80% 29.85 in 10.0 mi SW 9.2 mph - N/A   Clear
7:55 AM 32.0 °F 24.2 °F 26.6 °F 80% 29.87 in 10.0 mi WSW 9.2 mph - N/A   Clear
8:15 AM 32.0 °F 22.5 °F 26.6 °F 80% 29.87 in 10.0 mi SW 12.7 mph - N/A   Clear
8:35 AM 33.8 °F 25.8 °F 26.6 °F 75% 29.87 in 10.0 mi SW 10.4 mph - N/A   Clear
8:55 AM 35.6 °F 27.5 °F 26.6 °F 70% 29.87 in 10.0 mi SW 11.5 mph 16.1 mph N/A   Clear
9:15 AM 35.6 °F 27.1 °F 26.6 °F 70% 29.87 in 10.0 mi SW 12.7 mph - N/A   Clear
9:35 AM 35.6 °F 29.2 °F 26.6 °F 70% 29.88 in 10.0 mi SW 8.1 mph 17.3 mph N/A   Clear
9:55 AM 37.4 °F 30.3 °F 26.6 °F 65% 29.88 in 10.0 mi WSW 10.4 mph 17.3 mph N/A   Clear
10:15 AM 37.4 °F 29.8 °F 28.4 °F 70% 29.88 in 10.0 mi SW 11.5 mph - N/A   Clear
10:35 AM 39.2 °F 33.0 °F 28.4 °F 65% 29.88 in 10.0 mi SW 9.2 mph - N/A   Clear
10:55 AM 41.0 °F 35.2 °F 28.4 °F 61% 29.89 in 10.0 mi SW 9.2 mph 17.3 mph N/A   Clear
11:15 AM 41.0 °F 35.8 °F 28.4 °F 61% 29.88 in 10.0 mi SW 8.1 mph - N/A   Clear
11:35 AM 42.8 °F 36.6 °F 28.4 °F 57% 29.88 in 10.0 mi SSW 11.5 mph - N/A   Clear
11:55 AM 44.6 °F 39.2 °F 28.4 °F 53% 29.87 in 10.0 mi WSW 10.4 mph - N/A   Clear
12:15 PM 44.6 °F 38.4 °F 28.4 °F 53% 29.86 in 10.0 mi SW 12.7 mph - N/A   Clear
12:35 PM 46.4 °F 40.7 °F 28.4 °F 50% 29.84 in 10.0 mi SW 12.7 mph - N/A   Clear
12:55 PM 46.4 °F 40.7 °F 30.2 °F 53% 29.84 in 10.0 mi WSW 12.7 mph 18.4 mph N/A   Clear
1:15 PM 46.4 °F 42.4 °F 30.2 °F 53% 29.84 in 10.0 mi SW 8.1 mph - N/A   Clear
1:35 PM 48.2 °F - 30.2 °F 50% 29.83 in 10.0 mi SW 10.4 mph - N/A   Clear
1:55 PM 50.0 °F - 30.2 °F 47% 29.83 in 10.0 mi SSW 10.4 mph - N/A   Clear
2:15 PM 50.0 °F - 30.2 °F 47% 29.82 in 10.0 mi SW 10.4 mph - N/A   Clear
2:35 PM 50.0 °F - 28.4 °F 43% 29.82 in 10.0 mi WSW 9.2 mph - N/A   Clear
2:55 PM 50.0 °F - 30.2 °F 47% 29.83 in 10.0 mi WSW 8.1 mph - N/A   Clear
3:15 PM 51.8 °F - 30.2 °F 44% 29.83 in 10.0 mi SW 11.5 mph - N/A   Clear
3:35 PM 51.8 °F - 30.2 °F 44% 29.83 in 10.0 mi SW 10.4 mph - N/A   Clear
3:55 PM 50.0 °F - 30.2 °F 47% 29.83 in 10.0 mi SW 8.1 mph - N/A   Clear
4:15 PM 50.0 °F - 30.2 °F 47% 29.84 in 10.0 mi SW 11.5 mph - N/A   Clear
4:35 PM 50.0 °F - 28.4 °F 43% 29.84 in 10.0 mi SW 10.4 mph - N/A   Clear
4:55 PM 50.0 °F - 28.4 °F 43% 29.84 in 10.0 mi SW 9.2 mph - N/A   Clear
5:15 PM 48.2 °F - 28.4 °F 46% 29.85 in 10.0 mi SW 9.2 mph - N/A   Clear
5:35 PM 44.6 °F 41.4 °F 28.4 °F 53% 29.85 in 10.0 mi SW 5.8 mph - N/A   Clear
5:55 PM 44.6 °F 42.2 °F 28.4 °F 53% 29.86 in 10.0 mi WSW 4.6 mph - N/A   Clear
6:15 PM 42.8 °F 41.1 °F 28.4 °F 57% 29.87 in 10.0 mi WSW 3.5 mph - N/A   Clear
6:35 PM 42.8 °F - 28.4 °F 57% 29.86 in 10.0 mi Calm Calm - N/A   Clear
6:55 PM 42.8 °F - 28.4 °F 57% 29.86 in 10.0 mi Calm Calm - N/A   Clear
7:15 PM 42.8 °F - 28.4 °F 57% 29.86 in 10.0 mi Calm Calm - N/A   Clear
7:35 PM 42.8 °F - 28.4 °F 57% 29.86 in 10.0 mi Calm Calm - N/A   Clear
7:55 PM 42.8 °F - 28.4 °F 57% 29.85 in 10.0 mi Calm Calm - N/A   Clear
8:15 PM 42.8 °F - 28.4 °F 57% 29.85 in 10.0 mi Calm Calm - N/A   Clear
8:35 PM 42.8 °F - 28.4 °F 57% 29.84 in 10.0 mi Calm Calm - N/A   Clear
8:55 PM 41.0 °F - 28.4 °F 61% 29.84 in 10.0 mi Calm Calm - N/A   Clear
9:15 PM 41.0 °F - 28.4 °F 61% 29.84 in 10.0 mi Calm Calm - N/A   Clear
9:35 PM 41.0 °F - 28.4 °F 61% 29.84 in 10.0 mi Calm Calm - N/A   Clear
9:55 PM 41.0 °F - 28.4 °F 61% 29.83 in 10.0 mi Calm Calm - N/A   Clear
10:15 PM 41.0 °F - 28.4 °F 61% 29.83 in 10.0 mi Calm Calm - N/A   Clear
10:35 PM 39.2 °F - 28.4 °F 65% 29.82 in 10.0 mi Calm Calm - N/A   Clear
10:55 PM 37.4 °F 34.9 °F 28.4 °F 70% 29.81 in 10.0 mi WSW 3.5 mph - N/A   Clear
11:15 PM 37.4 °F 34.9 °F 28.4 °F 70% 29.81 in 10.0 mi WSW 3.5 mph - N/A   Clear
11:35 PM 37.4 °F - 28.4 °F 70% 29.79 in 10.0 mi Calm Calm - N/A   Clear
11:55 PM 37.4 °F - 28.4 °F 70% 29.79 in 10.0 mi Calm Calm - N/A   Clear